Weather observations for the past three days for
Marysville, Beale Air Force Base
Imperial (Metric)
Date Time (pdt) Wind (mph) Vis. (mi.) Weather Sky Cond. Temperature (ºF) Relative Humidity Wind Chill (°F) Heat Index (°F) Pressure Precipitation (in)
Air Dwpt 6 hour altimeter (in) sea level (mb) 1 hr 3 hr 6 hr
Max. Min.
03 22:55 E 10 10.00 Overcast OVC060 62.4 60.6 71.6 60.6 94% 29.84 1010.7 0.01 0.34
03 21:55 E 10 10.00 Light Drizzle SCT039 SCT049 BKN060 63 61.2 94% 29.85 1011.1 0.03
03 20:55 E 8 3.00 Light Rain Fog/Mist FEW028 64.6 62.8 94% 29.85 1011.1 0.05
03 19:55 SE 8 2.25 Light Rain Fog/Mist OVC041 63 61.2 94% 29.85 1011.1 0.17 0.25
03 18:55 S 8 1.13 Rain Fog/Mist NULL 65.3 62.2 90% 29.86 1011.4 0.07
03 17:55 S 12 10.00 Light Drizzle NULL 67.3 62.2 84% 29.85 1011.1 0.01
03 15:55 S 15 10.00 Overcast FEW020 OVC035 73.6 57.9 58% 29.86 1011.4
03 14:55 SE 12 10.00 Overcast OVC035 70.7 59.2 67% 29.88 1012.1
03 13:55 S 12 10.00 Overcast OVC045 70.2 57.7 65% 29.9 1012.8
03 12:55 S 13 10.00 Mostly Cloudy BKN060 71.2 56.7 60% 29.9 1012.7
03 11:55 SE 12 10.00 Mostly Cloudy BKN060 68.9 56.1 64% 29.93 1013.8
03 10:55 SE 12 10.00 Mostly Cloudy BKN060 69.6 55 69.6 60.3 60% 29.93 1013.8
03 09:55 SE 14 10.00 Overcast BKN050 BKN065 OVC120 68.5 54.5 61% 29.94 1014.1
03 08:55 SE 15 10.00 Overcast OVC090 65.1 54 67% 29.94 1014.1
03 07:55 SE 12 10.00 Mostly Cloudy FEW050 BKN095 64.4 53.6 68% 29.95 1014.5
03 06:55 SE 13 10.00 Mostly Cloudy BKN095 62.8 53.2 71% 29.94 1014.1
03 05:55 SE 13 10.00 Mostly Cloudy BKN090 63.7 52.9 68% 29.94 1014.1
03 04:55 SE 12 10.00 Mostly Cloudy BKN100 63.7 52.2 68.7 62.4 66% 29.95 1014.4
03 03:55 S 13 10.00 Overcast OVC100 63.9 51.4 64% 29.95 1014.4
03 02:55 SE 12 10.00 Overcast OVC100 65.1 50.9 60% 29.95 1014.4
03 01:55 S 9 10.00 Mostly Cloudy BKN110 66.2 51.4 59% 29.96 1014.8
03 00:55 SE 9 10.00 NULL NULL 66 50.7 58% 29.96 1014.8
02 23:55 S 8 10.00 NULL NULL 68.2 50.4 53% 29.96 1014.8
02 22:55 SE 8 10.00 Mostly Cloudy BKN120 68 50.2 80.2 66 53% 29.96 1014.8
02 21:55 S 8 10.00 Fair CLR 66.2 50 56% 29.96 1014.8
02 20:55 SE 7 10.00 Overcast OVC130 69.4 51.1 52% 29.95 1014.5
02 19:55 SE 7 10.00 Overcast BKN120 OVC150 71.8 51.1 48% 29.94 1014.1
02 18:55 S 9 10.00 Partly Cloudy SCT160 74.7 50.7 43% 29.95 1014.5
02 17:55 S 16 10.00 A Few Clouds FEW120 FEW170 78.3 52 40% 79 29.95 1014.4
02 16:55 SW 15 10.00 Mostly Cloudy BKN170 79.7 52.5 81.3 70.9 39% 80 29.96 1014.8
02 15:55 SW 16 G 21 10.00 A Few Clouds FEW047 80.6 53.2 39% 80 29.97 1015.1
02 14:55 S 15 10.00 Mostly Cloudy FEW046 FEW075 BKN190 80.8 52.7 38% 80 29.99 1015.8
02 13:55 S 14 G 22 10.00 Mostly Cloudy FEW039 SCT070 BKN190 78.4 54.1 43% 79 30 1016.1
02 12:55 SW 12 10.00 Mostly Cloudy FEW033 SCT140 BKN210 75.6 54.5 48% 78 30.02 1016.8
02 11:55 SE 10 10.00 Mostly Cloudy BKN049 BKN150 BKN170 73.4 54.7 52% 30.04 1017.5
02 10:55 S 9 10.00 Mostly Cloudy BKN060 BKN180 71.4 55.4 72.3 59.2 57% 30.04 1017.5
02 09:55 S 13 10.00 Overcast BKN170 OVC200 70 53.6 56% 30.03 1017.2
02 08:55 S 15 10.00 NULL NULL 67.8 53.8 61% 30.03 1017.2
02 07:55 SE 10 10.00 Mostly Cloudy BKN170 63.3 51.8 66% 30.02 1016.8
02 05:55 E 9 10.00 Mostly Cloudy BKN200 61.3 51.8 71% 30 1016.1
02 04:55 SE 10 10.00 Mostly Cloudy FEW090 BKN200 62.4 53.6 65.7 59.9 73% 29.99 1015.8
02 03:55 SE 9 10.00 Mostly Cloudy BKN060 BKN200 61.7 52.5 72% 29.99 1015.8
02 02:55 SE 13 10.00 Partly Cloudy SCT090 61.9 52 70% 30 1016.1
02 01:55 SE 12 10.00 Overcast OVC085 63.5 52.7 68% 30 1016.1
02 00:55 SE 13 10.00 Mostly Cloudy BKN095 62.2 50.7 66% 29.98 1015.5
01 23:55 SE 13 10.00 A Few Clouds FEW130 65.5 52.5 63% 29.98 1015.5
01 22:55 SE 13 10.00 Partly Cloudy FEW110 SCT150 SCT180 63.5 48.9 78.8 63.1 59% 29.98 1015.5
01 21:55 SE 12 10.00 A Few Clouds FEW140 66.2 51.4 59% 29.97 1015.1
01 20:55 S 8 10.00 Partly Cloudy SCT140 64.9 50.7 60% 29.95 1014.5
01 19:55 S 9 10.00 Partly Cloudy SCT150 66.6 47.8 51% 29.93 1013.8
01 18:55 S 9 10.00 Fair CLR 70.7 48.9 46% 29.92 1013.4
01 17:55 S 9 10.00 Fair CLR 74.7 46.6 37% 29.91 1013.1
01 16:55 S 14 10.00 Fair CLR 78.6 47.8 79.7 69.8 34% 79 29.92 1013.4
01 15:55 S 9 G 22 10.00 Fair CLR 79.5 47.1 32% 79 29.93 1013.8
01 14:55 S 8 10.00 Partly Cloudy SCT055 76.3 47.3 36% 78 29.95 1014.5
01 13:55 S 12 G 18 10.00 A Few Clouds FEW046 76.3 47.3 36% 78 29.96 1014.8
01 12:55 S 9 10.00 A Few Clouds FEW180 73 49.3 43% 29.98 1015.5
01 11:55 S 12 10.00 Partly Cloudy SCT038 71.2 49.5 46% 29.99 1015.8
01 10:55 S 13 G 18 10.00 Partly Cloudy SCT035 71.4 50.2 71.4 59.2 47% 29.99 1015.8
01 09:55 SE 13 10.00 Overcast OVC027 65.7 50 57% 29.98 1015.5
01 08:55 SE 18 10.00 Overcast OVC030 63.1 49.8 62% 29.96 1014.8
01 07:55 SE 14 10.00 Partly Cloudy SCT028 64.6 54.1 69% 29.94 1014.1
01 06:55 SE 13 10.00 A Few Clouds FEW022 60.1 52.5 76% 29.91 1013.1
01 05:55 SE 14 10.00 Overcast OVC019 61.2 52.3 73% 29.9 1012.7
01 04:55 SE 10 10.00 Mostly Cloudy BKN180 60.1 52.2 63.9 59.9 75% 29.9 1012.7
01 03:55 SE 14 10.00 Overcast OVC018 60.4 51.4 72% 29.89 1012.4
01 02:55 SE 16 10.00 Mostly Cloudy BKN019 60.6 52.3 74% 29.88 1012.1
01 01:55 SE 16 10.00 Partly Cloudy FEW030 SCT250 60.8 52.2 73% 29.88 1012.1
01 00:55 SE 16 10.00 Partly Cloudy FEW030 SCT250 61.7 52.5 72% 29.87 1011.7
31 23:55 SE 17 10.00 Partly Cloudy FEW020 SCT250 62.2 52.7 71% 29.87 1011.7
Date Time (pdt) Wind (mph) Vis. (mi.) Weather Sky Cond. Air Dwpt Max. Min. Relative Humidity Wind Chill (°F) Heat Index (°F) altimeter (in) sea level (mb) 1 hr 3 hr 6 hr
6 hour
Temperature (ºF) Pressure Precipitation (in)